Theta_e
294 295 295 295 294 294 294 294 294 294 295 295 293 294 296 297 290 290 296 299 297 299 308 311 312 311 309 309 310 311 311 312 313 313 313 313 312 313 313 313 313 313 313 314 314 314 315 315 314 313 313 314 314 314 315 314 314 313 314 313 313 313 312 312 312 312 312 312 311 311 310 310 309 309 310 310 310 310 310 310 311 311 311 311 311 311 312
293 294 295 295 294 294 294 294 295 295 295 295 295 296 297 298 296 297 299 299 298 300 305 312 313 313 311 311 312 311 310 310 310 311 311 311 311 312 313 313 313 314 313 311 311 312 313 312 311 310 311 311 312 312 312 312 312 312 312 311 311 311 311 312 312 311 311 311 310 310 310 309 309 309 309 310 310 310 310 310 310 311 311 311 311 311 310
293 295 296 296 295 294 293 294 295 295 296 295 296 297 297 298 297 299 298 299 299 310 315 314 314 314 313 311 309 309 310 310 310 310 310 310 310 311 312 312 312 311 311 310 310 310 311 310 310 310 311 311 311 311 310 310 311 312 312 311 311 310 310 311 310 310 310 310 309 308 309 309 309 309 310 310 310 310 310 310 310 310 311 310 310 310 310
289 294 294 295 296 296 294 294 294 295 295 294 295 293 298 297 295 297 298 297 297 310 314 313 312 311 310 308 309 309 310 310 309 309 309 309 310 311 310 310 310 311 310 311 311 311 311 312 312 312 311 311 310 310 310 310 311 311 311 310 310 310 310 310 310 310 310 309 308 308 308 308 308 309 310 310 309 309 309 309 310 310 309 309 309 310 310
287 295 294 294 295 294 290 290 295 296 297 297 298 298 299 300 301 295 292 295 301 311 313 309 309 309 309 310 310 310 311 310 310 309 309 310 310 309 309 309 309 309 310 311 312 313 313 313 313 313 313 312 311 311 310 310 311 310 310 309 309 309 309 310 309 310 309 308 308 308 308 308 309 310 309 308 308 308 308 309 310 309 308 308 308 309 309
288 294 294 295 291 283 285 300 305 302 297 297 296 297 300 303 301 300 303 305 309 313 311 309 308 308 309 310 312 314 312 310 310 311 312 311 310 309 310 311 311 311 312 312 312 313 314 314 314 314 314 312 311 312 310 310 310 309 308 308 308 308 309 309 309 309 309 308 308 308 309 309 309 309 308 307 308 309 309 309 309 308 308 307 307 308 308
288 293 293 287 281 285 299 303 306 304 304 303 300 301 301 302 306 309 305 309 311 313 312 312 311 311 312 313 312 313 313 313 313 311 311 310 308 309 311 311 311 312 313 313 313 313 313 313 313 313 312 312 312 311 310 309 309 309 308 307 308 308 308 308 309 308 308 308 308 308 308 308 308 308 307 307 307 308 308 308 308 307 307 307 306 307 307
292 289 288 280 283 297 302 303 303 305 303 303 301 300 303 306 306 305 303 309 313 313 312 312 312 312 312 313 313 312 314 315 312 310 309 309 310 312 313 312 311 312 312 312 312 313 313 312 312 312 311 312 311 310 310 309 309 308 307 307 307 308 307 307 307 308 308 307 307 307 308 308 307 307 307 307 307 307 307 306 307 306 307 307 306 306 306
286 287 287 287 296 297 300 298 301 299 298 299 296 289 297 305 307 307 306 311 312 312 311 311 311 312 312 309 309 312 312 314 314 313 313 313 313 314 314 312 312 313 313 313 313 313 312 313 312 311 311 311 310 309 309 308 308 307 306 306 306 307 306 306 306 307 307 307 307 307 307 307 306 307 307 307 307 308 307 306 305 305 305 305 305 305 305
291 287 286 287 286 284 291 303 307 307 309 308 305 302 296 306 308 310 311 310 312 311 310 309 310 310 306 301 304 310 313 316 316 317 316 314 314 312 311 312 312 313 314 314 313 313 311 310 311 311 311 310 309 309 307 306 305 305 305 305 306 306 306 306 306 307 307 306 306 306 305 305 306 306 307 307 307 307 306 305 304 305 305 305 305 305 304
289 288 285 285 283 287 297 303 305 309 308 310 310 298 293 307 309 310 312 311 312 310 309 308 308 305 300 300 304 311 314 315 314 311 310 311 311 310 311 312 312 312 312 312 310 309 308 307 308 310 309 308 305 303 303 302 302 302 303 303 304 304 304 305 305 306 306 305 305 305 305 306 306 306 306 306 307 307 306 306 305 305 305 305 305 305 304
289 288 286 285 288 288 299 304 307 307 310 309 305 287 288 309 310 310 312 311 311 311 310 309 308 305 301 303 307 312 314 313 313 311 309 309 310 311 313 313 312 311 310 308 307 306 306 307 309 308 307 305 303 301 300 300 299 298 298 300 301 302 303 304 304 305 305 305 306 305 305 306 306 306 307 306 306 306 306 305 304 304 304 304 304 304 304
288 287 288 290 290 297 304 304 308 308 309 307 292 285 295 311 311 311 313 313 313 311 309 310 306 312 314 314 313 313 313 310 310 311 310 310 312 312 311 310 307 308 308 308 307 308 308 309 309 308 305 304 302 302 301 300 299 300 301 302 302 302 303 303 303 304 305 305 305 306 306 306 306 306 306 305 305 305 304 305 304 304 304 304 304 303 304
288 289 287 288 291 301 306 308 308 309 303 290 290 302 305 310 312 313 314 314 313 313 311 311 313 314 313 313 313 311 310 309 309 309 309 309 309 310 309 307 308 308 308 308 308 308 309 308 307 307 305 303 302 302 302 301 302 303 304 304 304 303 304 304 304 304 305 305 306 306 306 305 305 304 305 305 305 304 304 304 304 304 304 303 303 302 303
291 289 287 286 283 293 309 308 306 307 296 295 305 309 309 311 313 313 314 314 312 312 311 312 313 310 312 312 312 312 311 308 307 306 306 306 305 305 305 306 307 308 307 307 307 307 307 307 306 305 304 302 302 301 301 302 303 304 304 305 304 304 304 304 304 304 305 305 305 306 305 305 304 304 304 305 305 304 304 304 303 303 303 303 302 301 302
287 287 284 286 294 303 309 308 297 305 306 307 309 310 309 313 314 313 313 312 312 312 312 310 310 310 309 310 311 310 308 307 306 306 306 306 306 305 305 306 306 307 306 307 306 306 306 306 305 304 303 301 301 300 301 303 304 304 304 304 304 303 303 304 304 304 304 305 305 305 305 304 304 304 303 304 304 304 303 303 302 302 302 302 302 301 300
292 289 294 301 301 307 308 307 304 306 307 308 309 311 310 311 312 315 312 311 312 313 312 310 309 308 310 310 309 307 307 307 306 305 305 304 304 304 304 305 306 306 306 305 304 304 304 304 304 303 303 301 300 300 301 303 303 303 303 303 302 302 303 303 303 303 304 304 305 305 304 304 303 303 303 304 302 303 303 302 302 301 301 302 301 301 300
303 302 302 304 303 304 305 306 306 306 308 309 310 311 310 312 314 314 312 313 313 312 312 308 308 308 309 309 308 308 307 306 305 305 305 304 305 306 306 306 306 306 306 305 304 303 303 303 303 303 302 301 300 300 302 302 303 303 302 302 302 302 302 302 302 302 302 302 303 303 303 303 303 303 303 302 302 302 302 302 301 301 300 300 300 301 301
296 291 302 303 304 304 305 306 307 307 307 309 311 312 312 312 313 313 314 313 312 312 311 309 308 308 309 310 308 307 306 305 306 306 305 305 306 307 306 306 306 306 305 303 302 302 301 302 302 302 302 301 301 301 301 302 303 303 302 302 301 301 301 301 302 301 301 301 301 302 303 303 303 303 302 302 303 301 303 301 301 300 300 300 300 301 300
295 296 301 301 301 303 304 306 306 307 307 308 310 313 314 314 314 314 313 314 312 312 310 310 308 308 310 310 308 306 305 305 305 304 304 304 305 307 307 307 307 306 304 303 301 301 300 301 301 301 301 300 301 301 301 302 302 302 302 302 301 301 301 301 301 301 301 294 299 301 302 302 301 301 301 301 300 300 300 302 301 300 300 299 299 300 300
302 300 301 300 301 302 304 305 306 308 308 308 308 310 312 312 312 312 313 314 312 312 310 310 310 308 308 308 307 305 305 305 304 303 304 305 306 307 306 306 306 304 303 302 301 301 300 301 301 301 301 301 301 302 302 302 302 301 301 300 301 301 301 300 300 301 301 301 300 300 299 300 300 300 301 301 299 299 299 299 298 300 301 301 300 300 298
294 296 301 303 297 295 302 304 306 306 307 309 309 310 310 311 311 311 310 311 311 311 310 310 309 308 307 308 307 305 305 304 304 305 306 307 307 306 307 306 306 304 303 302 301 301 301 301 301 301 301 301 302 301 302 302 301 300 300 300 300 300 300 300 300 301 301 301 300 299 298 297 297 297 289 289 295 299 298 291 287 287 290 297 298 301 299
294 302 304 307 306 305 306 307 307 308 308 309 308 308 310 311 311 311 310 307 306 306 308 310 310 309 307 307 307 305 305 306 307 307 308 307 306 305 306 305 304 303 302 302 302 301 301 301 301 301 301 301 302 302 302 301 301 300 300 299 299 299 299 300 299 301 300 300 301 299 298 297 297 296 297 296 288 287 289 289 289 288 288 288 288 288 297
304 304 306 306 305 304 303 306 307 307 309 310 309 310 311 312 311 311 310 308 306 305 306 308 310 308 307 306 305 304 306 307 307 307 308 307 307 306 305 304 303 302 302 301 301 301 301 301 301 301 301 301 302 302 302 302 302 302 301 300 299 300 300 299 299 300 300 300 300 299 298 298 298 297 296 296 296 290 288 289 289 288 288 288 288 289 288
303 304 306 306 306 305 307 308 307 307 309 310 308 309 310 310 310 311 309 309 308 307 306 307 308 307 305 304 304 303 304 306 306 306 305 305 304 305 304 303 302 302 301 302 302 302 301 301 301 301 301 301 302 302 303 302 302 302 302 302 301 300 300 300 299 298 298 299 299 300 300 299 299 299 297 296 295 295 294 289 288 289 289 289 288 288 289
305 305 305 306 305 305 306 306 306 307 307 308 308 309 309 307 308 308 308 307 306 306 306 306 306 306 305 303 303 303 302 303 302 303 305 304 304 303 302 302 302 303 302 302 302 302 302 301 301 301 301 301 302 303 303 302 302 302 302 302 302 300 300 300 300 299 299 299 299 300 300 300 300 300 299 299 297 296 295 295 296 290 289 289 289 290 288
305 305 305 304 303 303 305 305 304 306 307 308 309 308 309 308 305 307 306 306 305 305 304 304 303 304 304 303 302 303 302 301 301 302 303 303 303 302 302 302 302 302 302 302 301 299 298 300 300 301 301 302 303 303 303 302 302 302 302 303 302 295 292 295 301 300 300 300 300 300 299 299 298 298 300 299 299 299 298 297 297 297 297 297 292 289 293
305 305 306 303 302 302 303 305 306 307 307 307 308 307 308 308 306 304 303 302 301 301 301 301 301 300 300 300 300 299 301 302 301 300 300 301 302 303 302 301 301 301 302 301 301 301 301 301 301 301 301 302 303 303 303 303 302 302 302 300 299 299 300 299 300 301 300 300 300 300 300 299 300 299 297 297 296 298 296 298 297 296 298 297 297 291 289
303 304 305 305 305 304 305 306 306 306 305 307 307 307 306 303 302 302 301 300 300 300 300 301 301 300 300 300 301 300 300 299 298 299 300 300 300 300 300 300 300 301 300 300 301 301 301 301 301 301 301 302 303 302 303 302 302 302 301 300 299 299 300 300 300 300 300 300 301 300 295 296 297 299 299 298 298 298 299 298 297 298 299 300 300 298 294
303 304 304 304 304 305 304 303 303 303 304 305 305 303 304 302 300 299 299 299 299 298 298 299 300 300 300 299 299 300 301 299 298 298 299 300 300 300 300 301 301 301 300 300 300 301 301 301 301 301 301 303 303 303 303 302 302 302 302 301 300 300 300 301 301 301 301 300 298 293 297 298 299 299 298 300 299 297 297 296 297 296 297 297 296 298 298
303 304 304 305 304 304 303 302 303 303 303 303 303 302 302 301 299 298 298 298 299 298 299 300 300 300 299 299 300 300 300 300 299 300 300 300 299 300 300 301 299 297 298 300 301 302 302 301 302 302 303 303 303 303 303 302 302 302 302 301 301 293 290 292 294 300 299 297 296 298 299 300 300 298 295 296 298 298 298 298 298 297 297 299 299 298 298
302 302 303 302 302 302 301 302 301 301 301 302 301 300 300 299 298 298 298 298 298 298 299 299 299 299 300 300 300 300 300 300 300 299 299 299 298 298 300 300 300 297 301 302 302 302 302 302 302 303 303 303 303 303 303 303 302 301 301 296 299 299 296 293 296 297 297 297 297 299 296 300 298 299 296 296 297 298 298 297 297 297 299 299 298 299 299
301 300 299 300 300 300 300 300 300 300 300 300 300 301 301 301 300 299 299 298 298 299 299 299 299 300 300 300 300 300 299 299 298 297 297 296 297 298 299 301 302 302 303 303 303 303 303 302 302 304 304 304 304 303 303 303 302 301 300 299 299 298 294 294 295 299 297 297 299 300 299 299 298 298 299 298 299 297 298 299 297 297 299 299 300 300 299
302 301 301 302 301 300 299 299 300 300 300 300 300 300 299 299 299 299 298 298 298 298 298 298 299 299 299 299 298 297 297 296 294 294 295 295 296 298 301 302 302 303 304 304 304 303 303 303 304 304 304 304 304 304 303 303 302 301 301 301 299 298 298 298 297 299 298 297 298 299 299 299 300 299 297 297 300 299 298 296 296 296 298 299 300 301 294
303 304 304 303 303 303 303 302 301 300 299 297 298 298 299 299 298 298 297 298 298 299 299 299 298 298 297 297 296 295 295 295 295 294 294 294 295 298 301 302 303 303 303 303 303 303 304 305 305 304 303 304 303 303 303 302 303 302 302 301 300 298 299 299 298 299 298 298 299 299 299 299 299 296 296 299 299 300 299 297 297 296 297 298 299 300 298
304 303 302 302 303 303 302 302 303 302 299 298 298 298 298 298 298 297 297 298 299 299 298 298 299 299 297 295 295 295 294 294 293 293 291 293 296 299 300 301 301 300 300 301 303 304 304 304 294 294 303 303 303 303 302 303 303 302 302 301 299 299 298 298 299 299 299 300 299 298 299 296 297 297 299 299 300 299 299 300 299 298 298 298 299 299 300
304 303 303 302 303 303 302 302 301 301 300 300 299 299 298 298 298 299 299 299 299 298 298 298 297 296 295 296 296 296 295 293 293 291 292 294 298 299 300 300 300 299 300 299 301 304 303 304 293 290 299 303 302 302 302 293 302 301 301 301 301 300 299 299 300 300 299 300 299 299 296 296 299 298 296 298 299 299 300 300 299 299 299 297 297 298 297
304 304 303 303 302 301 301 301 301 300 299 300 300 299 298 298 298 299 299 299 299 299 299 299 297 296 296 295 295 294 294 294 293 293 294 295 297 298 299 299 299 300 299 299 302 303 303 299 289 297 303 302 301 302 299 290 295 301 301 301 301 300 299 299 299 298 299 300 296 300 299 298 298 299 300 299 300 299 299 300 297 298 298 298 299 297 298
303 303 303 303 303 302 301 301 301 300 300 298 298 298 299 299 299 298 297 297 298 298 297 296 296 295 295 295 295 294 294 294 294 294 295 296 299 299 299 300 300 301 301 303 302 302 301 297 303 302 301 301 301 302 297 288 290 301 301 302 302 301 299 299 299 298 298 300 300 299 300 299 299 299 299 299 300 299 296 299 299 296 299 298 300 299 300
302 302 302 302 302 302 301 300 300 300 300 299 299 299 299 298 298 297 296 296 297 297 297 296 296 295 295 295 296 295 295 295 295 296 297 299 300 300 300 300 301 302 302 295 301 302 297 291 298 302 301 301 301 301 299 293 293 299 302 301 301 300 300 299 300 299 300 299 299 294 298 298 299 298 297 298 299 298 300 300 299 299 299 299 299 299 298
302 302 302 302 302 302 302 301 300 300 299 299 299 299 300 299 298 297 296 296 297 298 297 297 297 296 296 297 297 297 296 296 297 297 299 300 299 297 297 297 301 303 302 301 303 300 295 296 301 301 302 301 302 297 301 292 298 301 301 301 301 300 300 299 299 299 300 299 298 299 299 300 298 298 297 298 298 300 299 299 299 299 300 300 299 300 299
302 302 302 302 302 301 301 302 302 299 298 299 298 299 300 299 298 297 297 298 297 297 297 298 294 298 299 299 298 297 298 298 298 298 299 298 297 297 296 299 303 303 297 298 297 296 299 301 301 296 302 302 300 294 294 298 301 301 301 301 301 299 300 299 301 299 299 300 300 301 299 299 299 299 300 300 299 300 299 299 299 300 300 301 300 300 299
302 302 302 302 301 301 301 301 300 299 298 298 299 299 299 299 299 298 298 297 297 297 297 297 295 294 297 297 297 298 299 299 299 298 298 299 300 299 299 300 301 302 290 299 301 301 300 300 301 302 296 301 300 289 290 302 301 301 301 301 300 300 299 300 300 300 300 301 301 301 301 301 300 300 300 300 299 299 300 300 300 300 299 300 301 300 299
302 302 302 300 300 300 301 301 301 300 298 297 299 299 300 300 299 298 298 299 299 299 298 296 296 296 296 296 297 297 298 299 298 298 297 298 299 300 302 301 302 296 289 298 300 300 300 300 301 298 290 289 286 288 299 302 302 301 301 301 300 300 300 300 300 300 301 300 300 301 301 299 299 300 301 299 299 300 300 300 301 300 300 300 301 301 300
302 301 301 300 300 300 300 300 301 300 298 298 298 299 299 299 299 298 298 298 299 299 297 297 297 297 297 298 299 300 299 299 299 299 297 296 296 298 303 295 300 296 297 294 299 300 300 301 298 289 290 287 286 288 301 301 301 301 301 301 301 300 301 300 300 300 299 300 300 300 300 300 301 300 301 300 296 298 299 299 300 300 301 300 300 300 300
301 301 301 295 300 299 300 301 303 303 301 299 297 296 297 298 299 298 297 297 297 298 300 300 299 298 299 300 299 299 299 299 299 300 299 298 296 299 302 296 299 295 292 291 300 301 301 290 287 287 287 286 286 295 301 300 300 301 301 300 301 299 299 301 299 299 299 299 300 301 301 301 301 301 301 301 301 300 299 296 297 300 300 300 301 300 300
302 302 300 299 300 300 300 300 300 300 299 298 296 295 296 297 296 297 297 298 297 299 300 301 301 301 301 300 299 297 296 297 298 300 299 299 299 299 297 295 291 289 291 299 300 302 301 297 290 286 286 286 287 300 301 301 301 302 301 301 301 301 300 300 299 299 299 299 299 298 295 298 299 301 301 299 301 299 299 299 299 299 299 298 298 297 297
302 301 300 299 299 299 298 298 298 298 297 297 297 297 297 297 297 297 298 298 298 298 298 300 300 301 301 301 300 300 300 298 295 297 301 300 301 302 301 302 299 290 292 294 295 293 288 289 287 286 286 286 293 300 301 301 300 301 301 300 301 301 300 300 300 299 299 299 298 299 299 300 300 300 300 300 300 300 300 299 298 298 299 299 300 300 299
302 301 301 300 299 298 297 297 298 297 298 297 297 297 297 297 296 296 296 297 298 297 297 298 298 298 298 296 297 298 299 299 299 297 301 301 301 301 301 296 288 287 294 300 301 301 290 286 286 286 285 287 298 300 301 300 300 300 299 299 301 300 300 301 301 300 300 300 300 299 300 299 300 300 300 299 299 299 298 300 300 298 298 298 298 298 298
302 301 300 299 298 297 297 298 299 300 299 298 297 297 297 297 295 295 295 295 295 295 297 298 298 297 297 297 297 298 299 299 299 300 300 301 302 302 301 301 300 292 293 301 302 301 289 285 286 286 289 296 300 300 301 300 301 299 301 299 299 300 299 299 294 295 298 298 300 299 299 298 299 298 297 298 298 298 299 299 299 295 292 295 297 297 298
301 300 301 300 300 300 300 300 300 301 300 299 298 297 296 296 296 294 295 294 294 294 295 296 297 297 297 297 297 298 299 299 299 297 300 301 301 298 297 299 299 295 298 299 301 301 301 299 300 293 294 298 300 300 300 301 300 300 297 299 302 299 299 300 298 300 300 299 300 299 299 300 300 301 300 299 299 299 299 299 298 298 299 298 299 298 299
302 302 303 302 302 302 301 301 301 301 300 299 298 297 296 296 295 294 294 290 294 294 295 295 295 297 298 298 297 298 299 300 300 300 298 299 301 302 298 294 301 298 300 301 301 303 302 301 296 292 293 299 300 301 296 294 299 300 300 298 298 300 300 299 299 301 300 301 300 300 299 299 300 299 300 300 299 298 298 298 299 299 298 299 299 299 299
Wind_Speed
1 3 7 10 14 15 17 17 16 17 18 18 18 14 13 10 8 6 9 9 10 9 10 13 14 15 14 14 14 14 13 12 14 16 18 19 18 18 18 18 17 18 18 17 17 16 14 15 15 13 13 12 11 9 8 7 7 7 7 8 8 8 8 8 7 7 7 7 7 7 7 7 8 8 8 8 8 8 8 8 8 9 9 9 9 9 10
7 6 5 7 10 14 17 18 18 18 19 20 18 15 14 9 8 7 3 12 15 9 8 12 12 13 14 14 13 14 15 15 16 18 18 18 18 19 19 18 18 16 15 13 11 14 14 16 15 13 12 11 11 10 9 8 8 8 8 9 9 8 7 7 7 7 7 7 7 7 7 7 8 8 8 8 9 9 9 9 9 8 9 8 9 10 10
7 5 3 6 10 10 14 16 18 18 17 17 19 17 16 13 12 5 5 6 9 4 6 11 12 13 14 14 16 17 17 18 18 18 18 18 18 19 18 18 17 17 15 14 16 16 15 16 14 12 12 12 11 10 9 9 9 9 9 9 8 8 8 7 7 7 7 7 7 7 7 7 7 8 9 8 8 8 9 9 9 9 9 9 9 9 11
8 7 6 7 8 10 13 15 18 19 18 18 18 16 15 15 13 12 8 8 8 7 9 11 13 15 17 18 17 17 16 18 18 18 18 18 19 19 18 18 18 15 14 15 13 13 14 14 13 12 12 11 10 10 10 9 9 9 9 9 9 9 8 8 6 7 7 7 7 7 7 7 8 8 8 8 8 9 8 9 9 9 9 9 9 9 9
6 8 7 7 6 9 12 14 17 18 15 14 14 15 14 13 13 11 9 10 7 12 13 14 14 16 17 17 18 18 18 19 18 19 18 18 18 18 18 16 15 15 14 14 14 13 13 12 11 12 12 11 11 10 10 9 8 9 9 9 9 8 8 7 7 7 8 7 7 7 7 7 7 7 8 8 9 9 9 9 9 9 9 10 9 9 10
6 7 8 6 7 9 8 3 7 5 14 16 14 13 11 13 13 8 6 3 8 15 15 16 18 19 18 17 16 15 16 17 17 19 19 18 18 16 15 13 15 17 15 14 14 13 12 12 11 11 10 11 11 10 10 10 10 9 9 9 8 8 8 7 7 7 8 7 8 7 7 7 8 8 9 9 8 8 8 8 8 9 9 10 10 10 10
6 7 8 7 9 7 5 2 3 4 5 2 9 6 10 12 9 3 5 6 11 13 12 12 13 13 13 14 15 16 17 18 17 18 18 19 19 17 17 18 18 17 17 16 16 14 13 12 12 11 10 10 11 11 10 10 9 9 9 9 8 8 8 7 7 7 8 7 8 8 8 8 8 9 9 9 9 8 8 8 8 8 8 9 9 10 10
4 7 7 7 6 6 4 3 1 4 4 3 3 5 7 8 12 12 11 8 9 10 11 12 12 14 15 14 14 15 17 18 17 17 17 19 18 19 18 18 16 18 17 17 16 14 12 12 11 11 11 10 11 11 10 10 9 9 9 9 8 8 8 7 7 7 7 7 8 8 9 9 9 10 9 9 9 8 8 8 8 8 10 10 10 10 10
7 7 9 5 3 3 5 3 7 9 8 10 11 7 11 13 12 12 9 10 11 13 13 13 14 14 14 13 12 15 17 18 19 20 20 21 19 19 18 16 15 16 17 16 16 14 13 12 11 11 10 11 11 11 10 9 10 9 9 9 8 8 8 7 7 7 8 8 9 9 9 9 9 9 9 9 9 8 7 7 7 8 9 9 9 10 11
6 8 9 7 5 6 4 3 6 11 0 6 6 5 7 12 13 11 11 14 15 15 15 16 16 16 13 11 10 14 16 18 17 14 17 15 15 15 16 17 18 18 17 17 15 15 14 12 11 11 11 11 11 10 10 10 10 10 9 9 9 8 8 8 9 8 9 9 9 9 9 9 9 9 8 8 8 6 7 7 8 8 8 8 9 10 11
6 7 8 7 6 3 5 4 6 9 4 5 4 5 10 11 15 13 13 15 16 18 20 20 19 15 13 13 13 15 17 18 17 17 18 17 16 18 20 21 21 19 17 17 16 15 13 13 11 10 12 12 11 10 9 9 9 9 9 9 8 8 9 9 9 9 9 9 9 9 9 9 9 9 9 8 7 6 6 7 8 8 8 9 9 9 10
7 7 8 6 4 2 5 6 7 8 4 5 7 8 9 13 17 16 15 16 17 17 20 22 20 18 14 16 15 18 18 17 18 20 20 19 19 19 18 16 17 17 16 16 15 14 13 13 12 12 12 11 11 11 9 9 9 9 8 9 8 7 7 7 8 9 8 9 9 10 10 9 9 9 7 6 7 7 7 7 8 8 8 9 10 9 9
8 9 7 4 3 2 5 5 8 6 5 4 7 10 2 6 15 17 18 18 19 20 21 19 16 13 1 8 18 22 21 20 19 17 19 20 20 20 19 18 18 16 14 14 14 14 13 13 13 12 12 12 12 11 11 10 10 9 8 9 8 7 7 7 9 10 9 10 10 10 8 8 7 7 7 7 7 8 8 8 8 8 8 8 9 9 9
10 9 9 5 1 4 5 8 8 6 6 5 7 4 2 5 11 13 14 16 16 18 18 13 8 6 10 21 23 22 20 18 17 19 18 17 16 16 17 19 18 16 14 15 15 14 13 13 12 11 12 13 12 12 11 11 11 9 10 10 8 8 8 9 9 10 10 10 9 8 7 8 8 8 7 8 7 8 8 8 9 9 8 8 8 8 8
5 6 8 5 6 3 8 13 8 1 3 1 5 2 1 3 8 11 11 13 15 15 16 11 8 15 17 21 23 23 21 19 19 19 18 18 18 18 18 16 15 15 15 15 15 15 12 12 11 11 13 14 12 11 12 12 10 11 10 9 9 9 9 10 9 10 10 10 9 7 7 8 9 9 8 8 8 8 8 8 9 9 9 8 8 8 8
8 8 9 5 1 7 12 11 2 9 1 4 5 6 2 3 7 10 9 11 14 16 14 12 13 16 19 20 21 21 20 19 18 17 17 18 19 17 16 17 17 16 16 15 14 13 12 11 12 12 13 13 12 13 13 10 11 10 10 10 10 10 10 10 10 9 10 10 9 8 8 8 9 9 8 8 8 7 7 7 7 7 7 7 7 7 7
7 4 1 4 1 4 5 4 5 5 3 2 4 6 2 5 6 7 8 12 14 16 13 13 15 16 17 19 20 20 21 21 19 18 18 18 18 18 18 17 16 16 16 17 15 14 12 13 12 12 12 14 14 14 11 11 11 11 10 10 10 10 10 10 9 9 8 8 8 8 8 8 8 8 8 7 7 7 7 7 7 7 7 6 6 6 7
5 5 3 2 1 2 4 2 4 3 2 0 2 3 1 3 5 7 8 12 15 14 15 15 13 14 18 20 19 19 20 19 18 19 19 17 18 18 18 17 17 17 17 17 16 16 14 13 12 11 12 14 15 13 11 11 11 11 11 11 11 11 10 10 10 10 10 9 9 9 8 7 7 7 7 6 7 7 7 7 7 6 6 6 6 6 6
6 4 5 3 4 3 3 3 3 2 1 1 2 3 3 3 6 7 7 11 13 14 15 15 15 17 18 21 19 20 19 19 19 20 20 18 19 19 19 18 18 17 17 16 16 16 15 13 12 13 13 12 13 12 12 11 11 11 11 11 10 10 10 10 10 9 9 8 8 7 7 7 6 6 6 6 6 6 6 6 6 6 6 6 6 6 6
6 2 3 3 2 3 1 2 3 3 2 2 2 2 2 4 7 7 11 14 14 14 14 17 17 18 19 22 21 18 18 18 19 18 18 18 17 17 18 18 18 17 17 17 17 16 15 13 13 13 13 13 13 13 12 12 12 12 12 11 10 10 10 9 8 8 8 7 7 7 6 6 7 7 8 8 8 8 7 6 5 6 6 6 7 7 6
2 2 4 3 4 4 5 5 2 1 1 3 4 4 5 6 9 10 11 13 14 14 15 17 17 18 18 20 21 20 18 19 17 17 17 19 19 18 18 18 18 16 17 17 17 16 15 14 14 14 14 13 13 13 12 12 12 12 11 11 10 11 9 9 9 8 8 7 8 8 8 9 9 9 7 7 9 9 9 8 7 6 5 6 6 7 7
3 3 4 7 2 2 7 8 5 3 3 3 5 6 8 9 10 10 12 12 12 13 15 16 17 19 18 19 21 21 18 18 20 20 20 19 19 19 18 16 17 18 17 18 18 17 15 14 14 14 14 13 12 12 12 12 12 12 12 11 10 10 9 8 8 8 7 7 8 8 9 9 10 10 11 14 11 7 7 6 8 10 10 7 6 5 7
1 6 2 2 4 5 5 6 7 5 3 4 6 7 8 9 10 12 13 13 12 11 12 14 17 18 18 20 20 20 18 20 20 20 20 19 18 18 18 18 18 18 18 18 18 17 15 15 15 14 14 13 12 12 12 12 12 12 11 9 9 8 8 7 7 7 7 7 7 8 9 9 9 10 9 9 10 11 9 6 7 7 8 7 10 12 8
1 3 4 4 4 4 6 5 6 4 4 5 6 6 7 9 11 12 13 12 13 12 11 10 15 19 19 18 17 19 19 21 21 20 20 20 20 20 18 18 19 20 19 19 18 18 16 15 15 14 13 12 12 12 12 12 11 10 9 8 8 7 7 8 7 7 7 8 8 8 8 8 9 9 9 10 8 5 3 4 5 6 8 8 10 11 13
3 2 4 5 5 6 5 6 4 4 2 3 5 7 8 10 10 12 14 13 13 13 11 11 11 16 20 16 12 15 17 20 20 20 20 19 19 18 18 19 20 19 18 17 16 16 15 15 15 14 13 12 11 11 11 11 11 10 9 8 8 8 9 8 7 8 8 8 7 7 7 7 7 7 8 8 9 8 5 3 5 8 7 7 8 9 9
1 3 5 6 7 7 6 6 5 4 4 4 6 6 8 9 10 11 12 13 11 12 13 13 13 13 17 18 13 15 14 13 15 18 18 18 17 15 17 19 19 17 17 16 16 16 16 17 16 14 13 12 11 10 10 11 10 9 9 9 8 8 8 8 8 8 8 8 8 7 6 6 5 6 6 6 7 8 9 8 6 4 6 6 4 5 7
4 5 7 6 6 6 4 1 4 4 5 5 6 8 9 10 10 10 10 11 12 12 13 13 14 14 12 15 16 13 14 16 13 13 16 18 18 17 16 15 17 18 18 16 15 15 15 16 15 14 13 12 11 10 10 11 10 9 9 8 7 8 5 7 8 7 7 7 6 6 6 6 6 6 5 4 4 4 5 5 5 6 7 7 6 7 4
4 2 4 3 3 4 5 6 6 6 5 6 7 9 10 10 11 13 13 12 11 11 11 13 14 16 14 12 16 15 12 8 7 9 12 12 12 12 13 15 16 17 16 15 15 15 15 15 14 14 13 12 11 10 10 10 10 9 8 9 9 9 8 7 7 7 7 7 6 6 6 5 6 6 6 6 6 5 5 5 6 6 5 6 6 6 6
3 3 2 4 7 7 7 6 6 6 6 7 7 8 10 11 11 12 13 12 12 12 11 11 11 15 14 12 11 14 14 13 10 9 10 10 11 11 11 13 15 16 15 15 15 15 15 14 14 13 13 12 11 10 10 10 9 8 8 8 9 9 8 7 8 7 7 7 6 6 6 6 6 5 5 5 4 5 5 4 4 2 3 4 6 7 8
4 5 6 8 8 8 8 7 6 6 6 7 9 9 10 12 11 10 12 12 12 12 12 14 13 13 14 12 12 14 13 14 13 11 10 9 11 11 13 14 15 13 14 15 16 15 15 14 14 14 12 12 11 11 10 9 9 9 8 8 9 9 8 8 8 7 7 6 7 5 5 5 5 5 5 4 4 4 4 4 2 2 3 3 1 2 2
7 7 8 8 7 5 5 6 6 7 7 8 9 10 10 11 12 12 12 12 11 12 13 14 14 13 13 15 13 13 12 12 12 12 11 9 9 10 12 15 14 13 14 15 16 15 14 14 13 13 12 12 12 11 10 9 9 9 8 8 8 10 9 7 7 7 7 8 8 6 5 5 5 4 5 4 4 4 3 4 3 2 1 1 2 2 3
10 8 7 6 5 4 5 5 6 7 8 9 9 10 10 12 13 13 12 11 12 14 15 15 16 15 11 11 14 13 12 11 11 11 10 10 10 8 9 10 12 13 14 15 15 14 14 14 14 13 13 12 12 11 9 9 9 8 8 8 9 9 5 1 6 7 8 8 7 6 5 5 5 5 5 4 4 4 2 2 1 0 1 1 0 2 2
9 7 6 5 4 5 5 5 6 8 8 9 8 8 8 8 10 12 11 12 12 13 15 13 13 15 13 10 11 11 12 12 12 12 11 10 9 9 8 9 12 14 13 13 14 13 14 14 13 13 14 13 12 11 10 9 9 8 8 9 9 9 9 6 5 7 7 7 6 6 6 4 5 5 4 2 1 1 1 1 1 1 1 1 1 0 3
3 2 2 4 1 3 7 7 6 7 7 6 6 7 7 8 8 10 11 11 13 13 12 13 12 13 14 13 12 13 13 12 9 9 10 10 10 10 10 11 12 13 13 14 14 12 12 12 13 13 14 13 12 10 10 10 9 9 9 9 9 10 9 7 5 7 7 6 5 3 3 4 3 3 4 4 3 2 0 2 1 2 2 2 2 1 7
3 4 4 2 1 2 7 9 9 8 8 7 6 6 7 8 8 8 10 12 10 9 10 11 10 10 10 11 12 13 15 13 12 12 12 10 10 10 10 10 12 12 13 14 13 12 13 12 13 14 14 13 12 10 11 11 9 9 9 9 10 9 9 8 8 6 7 6 5 7 5 5 4 3 2 2 3 3 3 3 3 3 3 4 3 3 4
4 5 5 4 4 6 8 7 8 9 8 9 8 8 8 8 10 9 10 9 9 9 11 13 13 11 10 13 13 15 12 9 10 10 10 8 8 9 9 10 12 13 14 14 13 12 13 12 13 13 12 12 11 11 11 10 10 9 9 8 9 8 8 8 7 6 5 5 5 5 5 2 2 2 3 4 4 4 4 3 4 3 4 4 3 4 1
3 4 4 5 6 7 7 6 7 7 7 9 10 10 9 10 11 11 10 10 9 9 10 11 11 13 13 11 9 8 8 8 8 8 7 7 9 10 10 11 14 14 13 12 12 12 12 11 13 13 12 11 11 13 11 6 8 9 8 8 8 7 7 7 6 6 6 5 5 5 4 4 6 6 6 6 5 4 4 4 4 4 4 4 4 4 4
5 5 5 6 7 7 6 5 6 7 8 8 8 9 11 11 10 11 11 11 12 11 10 10 12 11 10 10 9 9 9 9 9 9 10 8 9 11 11 12 13 13 12 11 11 11 9 12 14 13 12 11 11 12 10 4 2 8 8 7 7 7 6 6 6 6 5 6 6 5 5 6 5 6 6 5 5 5 4 4 4 4 4 4 3 4 4
6 6 6 6 6 7 7 6 5 6 8 9 9 9 8 10 10 10 10 11 11 12 12 11 10 11 12 11 10 10 10 10 10 10 11 11 11 12 11 12 12 11 9 10 12 9 10 12 12 13 11 12 12 12 10 8 5 7 7 7 6 6 6 6 6 6 6 5 6 6 6 5 5 5 5 5 4 4 4 4 5 5 6 5 4 4 4
6 6 7 6 6 7 7 6 5 6 7 7 9 10 10 11 10 10 10 10 8 9 11 12 13 11 12 12 12 11 12 12 12 12 12 11 12 13 12 11 11 11 11 14 12 9 11 11 12 12 11 12 12 11 10 9 8 7 6 6 6 6 6 6 6 6 6 6 5 5 6 5 6 5 5 5 5 5 5 5 6 6 6 5 5 4 4
6 7 6 6 6 6 6 7 7 6 7 7 7 7 10 11 11 11 11 12 12 10 11 13 13 13 13 13 12 12 12 12 12 12 11 11 13 12 11 11 10 9 14 13 9 10 12 12 12 11 11 12 11 11 11 10 9 8 7 6 6 6 6 6 6 6 6 6 6 6 6 6 6 6 6 6 7 6 6 6 6 6 6 6 6 5 5
7 7 7 7 6 5 5 6 7 7 7 6 7 8 9 10 11 11 11 11 11 11 11 10 11 12 12 12 12 12 13 13 13 12 11 11 12 11 11 10 10 9 11 11 13 12 10 11 11 10 11 11 10 9 9 9 9 9 7 7 7 7 6 6 6 6 6 6 6 6 6 6 6 6 6 6 6 6 6 6 6 6 6 6 6 6 6
7 8 7 7 6 6 5 6 6 7 8 7 7 7 8 9 9 10 11 11 12 12 11 8 7 8 10 10 12 12 12 12 12 12 10 10 10 10 9 10 10 8 10 11 12 12 12 12 10 9 9 9 8 12 9 8 9 8 7 7 7 6 6 6 6 6 6 6 6 7 7 7 7 7 7 7 7 7 7 7 7 7 7 7 7 7 7
7 6 6 6 6 5 5 7 7 7 7 7 6 7 8 7 9 10 11 12 12 13 12 12 10 10 10 10 11 10 10 10 10 10 10 10 10 10 10 11 9 9 9 10 11 12 12 11 10 9 10 8 11 12 8 8 8 7 7 7 6 6 6 6 7 7 7 6 6 6 7 7 7 8 8 8 8 8 8 8 7 7 7 8 8 8 7
6 6 7 7 8 6 6 7 8 8 8 8 7 7 6 7 8 9 9 10 11 11 13 13 12 11 10 11 10 10 10 10 10 11 12 11 11 9 8 12 10 10 8 9 11 10 10 10 9 12 10 9 9 9 7 8 7 7 6 7 6 7 6 7 7 8 8 8 8 7 7 7 7 7 7 8 8 8 8 8 8 8 8 8 8 8 8
6 6 7 8 8 6 5 6 7 7 8 9 8 6 5 6 8 9 8 7 8 10 12 13 12 11 12 11 9 9 9 9 9 8 8 9 11 9 8 9 10 9 10 9 10 10 9 11 13 11 11 9 10 7 7 8 7 7 7 7 7 7 7 7 7 8 8 8 8 8 8 8 8 8 8 7 7 7 7 7 8 9 9 9 9 9 8
6 7 7 7 5 5 5 6 6 7 8 8 7 6 6 6 6 6 8 8 8 9 10 11 12 12 12 11 10 9 8 8 6 4 6 8 7 8 9 8 11 11 9 9 9 10 8 8 9 11 11 11 11 7 8 7 8 7 7 7 7 7 7 7 7 7 8 8 8 8 8 7 8 8 8 7 8 9 9 8 8 9 9 9 9 9 10
6 7 7 7 7 7 7 7 7 7 7 7 7 7 7 7 7 6 7 7 8 8 8 7 7 9 10 10 11 11 10 11 9 8 6 8 9 8 9 8 8 10 10 5 5 4 11 12 12 11 11 10 7 7 8 8 8 8 8 8 8 7 7 7 7 7 7 7 7 8 8 8 8 9 9 9 9 9 8 7 6 8 9 9 10 10 10
6 7 7 7 7 8 7 7 7 6 6 5 6 6 7 8 7 6 6 6 7 8 8 7 7 6 6 7 8 5 5 7 8 8 8 8 8 8 9 9 11 12 9 9 10 6 8 10 10 10 9 8 7 8 8 8 7 8 7 8 8 8 7 7 7 7 7 7 7 7 7 8 8 8 9 9 9 9 9 9 9 7 8 8 9 10 10
7 7 7 7 7 7 7 6 7 7 6 7 6 6 7 7 7 6 5 5 5 6 6 6 6 6 6 6 5 5 6 7 7 7 8 9 9 10 10 9 8 10 10 9 10 8 9 10 9 9 8 6 7 8 8 7 7 8 8 8 8 8 8 8 7 7 8 8 8 7 7 7 7 8 8 8 9 9 7 7 7 9 7 8 10 8 9
7 7 6 6 6 7 7 6 6 6 6 7 7 6 6 6 6 6 6 6 6 6 5 6 6 7 7 6 5 5 6 8 7 9 9 9 10 10 10 9 9 9 9 8 9 9 8 7 6 7 6 7 7 8 8 8 8 8 8 8 8 9 9 8 9 9 9 9 9 9 9 8 9 9 9 9 9 9 10 10 8 9 7 8 8 7 7
6 6 6 6 7 7 6 7 6 5 5 5 6 7 6 5 6 6 5 4 6 6 7 8 8 6 8 8 8 7 7 6 6 7 9 9 9 9 9 10 9 9 9 9 10 10 9 9 9 8 8 7 7 7 7 7 8 8 8 8 8 9 9 9 9 9 9 9 9 9 10 10 10 9 10 10 10 10 10 8 8 8 10 8 7 7 7
Wind_Direction
152 202 144 175 190 199 194 203 203 205 206 208 214 214 224 222 218 216 175 179 211 196 178 167 168 167 165 163 158 149 148 150 149 146 145 145 143 145 145 143 142 139 136 138 136 129 119 119 119 122 129 132 130 125 118 114 109 103 106 110 106 98 100 94 82 77 75 71 71 72 71 70 69 69 69 68 68 67 64 62 55 51 50 46 44 43 42
195 181 180 176 199 202 204 205 208 208 205 208 210 211 213 211 209 248 195 199 207 222 186 159 157 156 156 153 150 145 145 150 150 149 146 144 145 147 146 143 140 133 125 126 126 129 126 127 130 131 132 130 127 123 117 112 107 109 111 106 103 100 98 92 87 83 81 79 76 74 75 74 73 74 75 76 74 70 65 59 56 52 51 48 43 42 41
180 170 166 194 205 207 216 212 212 213 212 211 209 209 212 206 229 213 223 204 184 77 118 137 140 149 151 148 152 153 150 152 154 151 147 146 147 147 142 139 134 133 135 136 134 133 137 134 133 131 134 133 126 117 115 113 113 115 111 103 96 97 96 93 92 93 85 81 80 78 78 78 78 80 80 77 70 66 63 59 55 52 48 47 45 43 42
175 183 199 186 210 213 219 217 215 211 208 210 206 211 206 208 208 209 220 223 211 134 137 135 147 159 160 159 159 158 160 158 154 151 150 150 148 145 140 135 135 133 127 129 139 139 139 136 135 134 134 127 118 114 114 113 115 110 103 98 96 94 94 97 99 95 90 87 87 87 85 83 84 83 79 75 71 65 62 60 56 53 51 47 46 45 44
176 167 203 191 195 205 219 221 213 212 214 215 209 212 206 206 209 208 215 219 212 153 147 151 167 170 169 166 168 165 162 160 157 154 152 151 145 139 140 138 133 128 136 143 147 149 143 135 132 130 128 121 116 116 114 112 111 105 101 99 97 96 96 96 89 89 93 93 92 92 89 90 88 84 77 73 69 68 65 61 59 55 51 48 45 43 44
163 174 178 186 202 207 214 55 20 232 221 206 207 195 189 201 208 222 226 242 134 144 157 170 175 182 180 172 169 167 163 160 157 156 154 149 141 137 142 145 144 144 149 149 148 145 137 132 120 121 114 111 113 115 117 117 111 105 104 101 100 100 98 96 94 88 95 99 97 94 92 88 85 80 77 74 72 69 68 64 59 58 55 50 46 44 42
178 170 171 193 211 214 53 250 46 52 67 124 205 196 200 195 192 166 182 173 166 167 168 167 168 172 163 159 162 168 163 164 162 158 155 149 145 155 153 147 153 156 152 146 145 140 133 125 125 130 127 123 122 121 120 116 112 108 106 104 101 100 99 100 100 99 95 99 98 94 90 88 85 82 77 75 70 68 67 63 61 58 56 54 49 45 45
157 185 191 202 203 93 194 112 172 99 100 132 126 202 204 203 201 203 214 189 159 152 152 156 162 157 154 153 159 164 167 168 161 159 159 153 156 160 154 152 152 151 150 148 145 139 128 132 137 137 133 131 123 120 118 114 112 108 106 104 102 101 99 94 97 102 103 101 99 97 95 90 87 82 79 76 75 71 67 64 62 63 53 52 53 50 45
190 200 198 209 72 173 143 155 182 179 177 175 180 198 209 200 198 195 193 159 152 151 148 147 145 143 147 152 163 166 171 172 166 160 160 159 161 154 148 146 145 144 144 142 141 136 139 143 139 137 130 125 122 121 120 116 112 108 104 102 100 99 98 98 97 99 101 102 100 98 95 91 85 82 80 79 78 81 81 76 74 69 66 59 55 51 47
227 202 199 204 214 225 190 108 130 175 94 183 200 245 214 179 187 189 179 164 154 149 144 147 144 144 142 157 173 178 176 175 165 160 148 143 137 130 133 140 142 141 138 134 134 141 141 139 139 135 126 124 123 119 117 116 112 109 104 98 96 95 99 103 104 103 103 102 100 97 93 88 86 84 83 83 81 74 75 78 72 70 73 71 64 58 50
197 216 219 206 215 180 116 112 125 157 132 178 171 213 224 182 181 183 177 165 159 155 153 151 153 156 171 181 177 177 176 172 161 150 147 143 137 142 148 146 142 139 131 120 120 133 136 138 137 127 121 115 109 102 97 95 92 92 92 91 91 95 102 104 101 100 101 100 99 95 93 89 86 88 84 82 84 85 85 82 76 74 69 68 70 65 60
204 213 212 215 219 175 86 98 132 137 142 115 196 204 216 158 171 173 178 169 160 156 160 161 167 173 180 186 179 171 166 157 160 152 145 144 143 145 140 127 124 117 114 115 122 128 132 129 127 123 117 110 105 103 100 98 94 92 92 95 93 94 100 99 102 105 101 100 98 96 93 93 91 86 84 82 77 76 76 76 76 75 73 70 68 66 65
205 224 215 217 164 77 94 100 128 132 147 204 193 204 105 142 172 172 176 175 164 162 165 174 183 192 277 156 144 157 155 150 148 143 142 146 146 139 132 126 122 121 124 128 131 131 128 129 129 127 123 118 113 112 113 107 105 109 111 105 102 104 108 108 107 105 102 98 97 95 94 92 92 87 83 82 81 80 79 75 78 77 75 75 72 70 63
210 205 220 222 115 51 105 125 124 150 170 180 192 58 321 232 181 176 177 166 163 169 173 179 186 134 113 127 138 151 156 146 139 141 135 126 120 115 118 123 126 126 128 128 125 125 129 132 132 129 123 118 119 124 120 113 116 118 109 107 114 119 115 106 104 102 101 101 100 98 97 96 93 88 83 82 81 81 80 82 79 76 73 71 70 68 69
211 208 221 215 219 156 166 125 123 205 236 62 9 322 97 267 175 168 167 164 166 171 176 176 125 119 127 139 152 156 154 135 135 134 130 123 121 121 121 124 126 128 129 130 128 130 133 132 130 126 125 123 124 121 113 114 114 109 111 120 121 116 109 104 101 103 106 107 103 100 97 94 91 91 91 88 88 86 88 86 81 79 73 71 70 67 64
206 199 214 219 83 124 166 156 168 187 350 26 1 332 134 170 171 170 165 171 174 177 171 146 141 133 134 142 150 147 138 130 131 129 129 129 129 130 129 131 135 134 128 127 128 131 130 130 129 130 129 125 122 116 112 113 112 118 121 117 114 111 108 107 108 109 109 106 106 103 99 94 89 86 83 82 78 76 76 75 76 72 71 70 67 65 59
228 227 162 63 10 114 130 52 65 28 30 348 325 334 358 185 164 178 178 167 173 184 154 136 135 138 142 152 149 139 138 135 136 137 136 133 132 133 134 135 137 135 132 131 131 130 129 130 132 132 128 122 119 113 115 121 123 122 120 119 118 116 115 113 113 112 108 106 103 101 99 95 91 88 84 83 82 79 74 69 68 68 69 64 64 62 59
89 74 85 70 116 177 159 101 42 33 32 213 279 285 191 189 183 181 183 175 173 155 140 134 136 136 144 144 146 136 135 132 131 132 134 137 139 138 135 137 140 136 133 131 130 128 129 130 129 128 126 123 119 119 124 124 123 123 124 122 120 118 117 117 117 115 111 105 98 94 91 86 81 77 78 76 79 75 71 69 66 65 61 63 58 56 57
191 198 130 148 135 162 188 158 94 66 264 268 275 246 245 170 168 176 144 136 145 143 141 137 138 139 146 150 148 138 134 134 138 138 138 142 145 143 143 141 138 136 135 132 131 130 129 130 127 126 124 119 120 124 127 129 128 127 123 120 118 120 120 120 118 116 116 111 107 101 92 85 79 78 74 75 68 66 68 68 68 62 63 56 53 54 51
218 82 105 103 174 226 239 205 182 149 129 157 229 254 214 173 167 143 145 147 148 148 147 140 142 147 151 153 151 140 139 138 137 137 140 141 140 141 140 139 139 135 135 133 133 133 131 131 129 127 125 125 126 128 131 132 130 127 126 127 129 127 125 122 118 111 105 109 107 96 87 82 84 82 76 66 59 50 35 28 48 68 62 53 49 40 44
151 76 157 146 183 184 178 190 234 20 77 144 172 177 168 163 155 161 156 154 155 165 145 143 145 147 150 149 144 139 139 140 140 140 141 142 142 139 141 140 139 137 136 134 134 133 132 132 131 130 129 129 130 131 131 131 132 129 125 127 127 126 124 121 119 124 122 113 100 98 90 78 61 42 34 52 75 67 39 29 15 9 27 67 56 55 42
217 238 149 167 193 155 170 185 175 157 174 188 152 160 161 161 159 160 163 153 144 146 146 148 149 148 149 148 144 142 143 143 144 145 144 144 142 141 140 139 137 135 136 136 136 135 135 135 134 133 133 133 134 134 133 131 129 127 130 130 130 128 127 124 126 125 119 114 112 107 104 99 92 78 53 43 25 54 76 50 36 28 22 35 2 357 67
220 35 80 109 41 82 60 135 136 137 162 171 161 166 162 161 160 159 153 140 128 133 148 155 152 149 149 149 145 142 144 146 148 148 144 144 143 141 141 139 139 140 140 139 137 138 138 139 137 137 137 139 139 136 135 134 134 134 137 135 130 128 131 128 122 122 122 122 117 114 113 112 108 104 99 75 61 48 51 56 44 43 42 33 30 25 18
31 11 56 43 19 48 117 119 111 119 155 172 163 160 162 159 159 155 147 143 138 135 141 157 154 147 146 145 144 142 144 145 146 147 148 145 143 143 145 145 143 142 141 142 142 140 141 140 139 139 141 143 142 141 140 139 141 139 139 139 134 129 118 122 132 131 119 118 123 124 123 122 117 116 110 104 94 78 51 79 94 73 67 54 41 39 34
356 23 52 50 88 102 110 132 119 102 159 163 154 158 154 155 152 152 146 143 145 140 134 140 148 149 143 140 128 130 140 145 144 142 141 140 141 145 145 144 144 144 145 145 142 142 143 142 141 143 145 146 147 146 144 144 144 143 140 131 129 128 132 136 124 123 129 127 127 125 125 127 129 127 118 113 109 107 127 160 109 97 79 69 67 60 51
92 102 93 107 99 99 103 108 124 130 131 133 143 141 143 141 137 141 138 135 133 134 131 130 133 144 137 131 123 116 107 114 127 134 137 136 139 141 145 144 144 145 145 145 144 144 144 143 144 146 146 149 150 148 146 145 143 137 131 128 134 138 144 139 138 135 132 133 130 130 126 121 117 118 117 118 121 127 123 126 136 118 105 79 79 114 90
112 116 133 113 98 83 33 16 124 129 129 134 142 142 140 129 121 123 118 122 123 124 122 114 106 109 116 124 124 126 131 128 127 135 135 138 140 141 141 140 140 141 142 142 143 143 141 144 146 148 148 151 150 150 147 143 140 136 133 129 122 69 66 149 138 137 134 129 130 121 117 117 118 116 116 119 128 125 114 121 117 116 111 110 72 22 43
108 65 358 339 125 108 100 95 116 130 131 135 141 145 143 136 124 121 116 108 98 93 99 107 110 112 111 121 123 117 107 96 103 118 118 124 124 118 118 127 133 135 138 140 141 143 147 150 150 149 148 150 151 153 147 143 139 136 132 131 133 143 146 150 139 133 133 135 129 130 133 124 111 110 114 118 116 112 115 118 119 110 105 92 107 137 132
64 24 63 58 82 98 106 118 132 127 127 133 141 137 140 133 127 120 119 117 112 107 103 104 109 121 124 134 127 126 133 134 134 130 116 102 111 115 117 125 137 143 145 147 145 149 152 153 152 150 148 152 154 153 149 146 144 142 139 137 139 144 151 143 138 138 136 134 133 114 114 123 131 125 118 117 120 123 115 103 97 101 124 153 154 153 189
79 97 99 100 109 118 124 126 129 137 135 145 148 143 135 132 125 119 117 118 120 117 123 125 129 131 134 138 139 137 138 140 139 134 127 115 123 129 138 142 141 141 147 153 156 157 157 156 157 152 150 156 155 155 152 152 147 144 139 135 140 148 148 140 136 134 137 128 104 107 155 146 128 134 137 122 106 99 92 81 68 121 114 97 44 53 74
98 91 95 105 115 136 133 127 138 142 143 145 151 149 142 128 123 125 128 126 123 125 138 141 137 132 140 144 143 140 130 130 129 133 135 124 122 133 147 156 154 154 158 160 158 161 161 161 159 153 153 156 155 156 154 156 148 142 142 135 118 68 81 121 144 141 135 133 151 165 149 156 133 124 124 134 146 133 140 150 157 111 55 82 70 66 49
108 104 109 115 120 124 132 140 143 145 147 147 149 155 151 139 139 136 134 132 136 141 144 144 144 141 140 140 135 135 136 131 128 126 122 126 131 135 145 150 151 155 157 157 159 164 165 164 163 154 157 157 157 156 159 155 150 150 143 133 134 144 129 290 153 142 140 152 163 159 158 156 146 146 152 159 149 147 168 131 115 302 8 20 74 61 52
124 129 132 138 137 143 144 149 152 149 152 154 155 143 135 134 135 138 136 132 132 149 151 147 141 142 133 135 135 131 130 129 129 129 128 129 133 142 155 155 156 160 156 159 162 166 167 168 160 156 162 159 160 159 161 158 156 148 141 145 145 143 152 186 132 148 154 162 170 162 162 172 150 178 155 160 133 191 177 197 196 233 247 285 321 221 78
1 8 121 147 156 174 167 155 151 148 147 141 128 123 121 132 136 135 135 135 136 143 149 148 134 130 130 133 132 127 126 123 126 127 128 133 142 153 163 164 164 158 156 159 164 168 169 170 162 164 164 163 161 161 163 165 159 149 148 150 142 146 164 164 165 174 157 185 162 160 173 168 192 192 158 192 207 231 274 287 292 292 291 275 285 277 126
16 85 102 92 74 156 154 159 154 151 148 144 127 122 121 122 128 129 127 136 136 127 125 116 112 115 119 124 128 135 145 147 145 138 143 146 150 157 162 164 157 150 154 164 168 171 173 168 165 166 165 164 162 163 168 169 161 150 153 147 147 156 164 161 177 181 172 178 177 173 187 188 199 194 255 275 244 225 223 246 284 295 291 283 287 295 149
124 119 107 97 109 134 148 153 152 147 142 136 136 136 134 127 121 122 130 127 125 118 119 125 129 126 131 137 144 151 152 145 142 140 141 148 155 154 155 160 152 154 161 167 173 172 170 168 152 156 167 163 164 165 172 169 162 154 156 155 159 165 162 168 183 178 194 186 190 199 204 192 311 274 252 241 238 243 252 245 248 244 262 275 287 295 285
138 126 108 108 116 127 134 142 139 138 138 138 137 139 136 135 140 142 136 126 125 127 132 134 135 139 148 151 144 132 122 136 138 140 140 148 153 154 158 159 161 162 165 168 170 167 164 137 133 149 164 164 166 170 163 178 172 155 162 170 168 175 169 181 189 194 188 205 206 200 201 207 221 220 222 234 245 249 256 260 247 255 271 280 282 271 265
124 125 116 113 119 121 120 123 126 126 125 123 126 131 134 137 139 148 145 139 140 139 133 136 139 134 128 125 129 125 124 119 122 129 145 152 154 156 163 167 170 170 174 173 159 162 150 133 145 159 170 166 168 165 150 190 259 163 171 180 178 182 184 191 188 200 206 193 197 211 204 216 220 223 215 224 229 241 248 253 257 279 286 280 272 270 269
120 115 111 114 122 126 125 127 134 136 137 132 129 130 134 137 135 129 133 136 139 141 141 130 118 120 128 137 136 135 135 136 135 141 147 156 161 162 167 169 174 172 172 150 158 156 122 144 165 170 169 166 167 160 144 162 215 196 172 185 189 195 189 201 201 196 207 207 203 209 214 218 228 234 245 244 253 252 252 263 296 301 284 277 276 276 264
140 137 128 131 130 132 131 131 133 130 136 140 139 141 145 140 137 131 128 130 131 133 135 135 136 139 148 148 146 145 146 146 151 152 153 157 162 159 159 165 164 172 147 142 159 144 139 159 173 172 164 166 168 166 160 166 197 215 198 193 195 202 202 200 205 206 198 207 206 213 241 236 232 238 240 248 247 246 260 253 236 242 250 258 262 263 260
144 138 137 143 137 138 138 140 133 130 127 135 142 144 148 146 141 140 144 147 153 153 146 149 151 152 156 154 150 143 146 150 156 157 156 154 156 159 165 161 156 141 140 162 158 134 145 167 176 168 164 167 173 165 162 161 192 212 212 204 206 207 207 209 215 216 217 214 219 222 219 227 224 227 232 239 243 250 250 249 255 262 266 267 265 261 259
145 147 147 146 137 140 147 145 131 124 126 131 138 148 147 145 147 148 148 149 152 154 153 159 154 148 146 143 142 144 150 155 156 157 163 164 165 166 166 154 153 147 123 125 113 136 161 176 189 176 167 168 169 147 136 161 200 208 215 209 213 213 225 218 221 227 231 235 235 234 231 235 240 241 235 237 243 248 253 260 264 265 268 266 265 267 268
150 154 154 144 133 141 151 149 146 133 130 133 146 151 151 151 150 147 146 146 149 153 153 139 123 122 128 135 140 149 152 154 152 154 156 165 173 172 166 149 150 126 140 152 155 162 169 181 181 189 162 180 153 134 158 192 202 209 215 214 214 220 222 227 230 229 230 231 230 237 242 243 241 244 246 250 252 252 252 253 258 262 266 267 266 261 258
150 149 146 137 135 139 154 152 143 137 135 133 139 146 153 152 150 148 151 154 155 157 151 146 155 153 147 150 153 155 154 154 151 152 154 164 171 173 168 159 154 140 161 163 170 172 177 179 191 146 133 115 118 152 180 205 208 209 209 213 214 220 230 239 243 248 249 246 242 242 242 242 248 252 253 252 252 255 259 262 269 271 273 272 271 268 266
150 143 146 143 144 153 166 157 156 147 140 139 138 145 150 147 149 150 145 151 155 153 151 155 161 161 159 160 163 161 160 159 160 161 167 167 170 161 155 141 134 146 170 176 180 181 181 186 139 132 147 138 147 165 196 205 209 215 215 219 225 234 241 245 250 250 251 252 255 254 256 257 253 251 253 255 259 267 269 269 268 270 272 271 270 269 264
154 143 138 143 153 166 172 161 152 138 132 133 128 127 136 149 150 150 150 155 156 157 161 163 163 165 167 163 147 134 141 152 162 173 176 175 180 157 140 157 155 155 159 188 186 191 184 124 132 146 145 150 154 188 211 215 220 221 226 231 235 240 245 248 248 249 248 249 250 252 251 248 248 251 255 260 263 262 263 268 272 274 274 274 271 272 273
150 138 139 142 149 152 126 111 114 124 129 136 139 140 145 147 146 148 159 168 172 171 170 169 169 170 167 158 146 143 141 141 140 146 169 176 178 150 137 135 120 136 153 188 183 201 169 128 144 145 155 159 182 204 213 220 223 231 230 234 236 241 243 246 247 245 243 242 246 256 266 278 282 278 275 266 261 263 261 260 257 265 270 272 270 268 263
144 138 141 149 146 131 122 129 142 153 160 163 158 148 149 150 152 156 154 161 165 162 160 163 162 160 160 156 159 163 163 161 161 163 157 171 177 152 160 173 153 163 172 181 180 85 110 144 149 160 160 168 192 218 225 229 232 231 232 231 233 236 239 240 237 237 239 244 245 247 249 249 248 250 254 260 266 265 264 262 262 263 267 270 271 271 272
149 145 143 142 140 140 145 166 174 165 159 147 143 137 145 147 143 143 145 138 138 144 153 160 156 149 145 145 144 141 152 160 164 165 167 175 164 166 169 140 140 157 182 192 192 180 135 143 150 160 159 182 208 219 226 228 227 229 228 229 230 230 235 239 242 243 246 245 248 251 257 258 261 261 261 259 258 260 262 263 263 263 265 267 269 271 271
146 144 148 152 153 157 165 175 179 171 152 150 144 137 140 141 146 156 150 147 148 145 145 148 146 145 144 145 154 151 162 170 170 159 167 181 184 186 170 162 159 172 190 196 194 180 128 140 134 149 167 197 216 225 228 228 223 218 224 225 231 240 239 245 258 265 267 268 265 263 260 262 263 264 269 273 275 277 276 274 273 271 264 263 266 271 274
165 171 171 165 166 165 176 188 176 162 159 150 143 143 149 159 152 147 154 147 146 150 149 142 143 148 149 150 147 159 166 182 179 150 167 183 193 181 173 167 158 172 187 199 190 189 162 181 179 167 188 211 216 220 225 225 227 222 222 234 234 240 245 237 237 243 242 243 247 249 251 255 256 260 260 263 259 258 256 257 257 259 257 260 263 263 263
173 179 167 165 172 166 174 176 161 148 148 140 141 145 157 150 133 134 135 146 158 161 163 159 158 160 164 164 167 168 175 171 155 159 178 180 183 179 160 154 163 170 183 194 195 198 190 183 165 172 193 204 218 219 215 222 230 234 230 229 237 243 246 252 253 247 243 235 234 245 249 251 257 257 254 254 256 258 258 258 258 259 260 261 263 262 262